Temperature
20 21 20 20 20 20 20 20 20 20 20 19 19 19 19 19 19 19 19 19 19 19 19 19 19 19 19 19 19 19 19 19 19 19 19 19 19 19 18 18 18 18 18
21 21 20 20 20 20 20 20 20 20 20 20 19 19 19 19 19 19 19 19 19 19 19 19 19 19 19 19 19 19 19 19 19 19 19 19 19 18 18 18 18 18 18
21 21 21 20 20 20 20 20 19 20 20 19 19 19 19 19 19 19 19 19 19 19 19 19 19 19 19 19 19 19 19 19 19 18 18 18 18 18 18 18 18 18 18
21 20 20 20 20 20 20 20 20 20 19 19 19 19 19 19 19 19 19 19 19 19 19 19 19 19 19 19 19 19 19 18 18 18 18 18 18 18 18 18 18 18 18
21 20 21 20 20 20 20 20 20 19 19 19 19 19 19 19 19 19 19 19 19 19 19 19 19 19 19 19 19 19 19 18 18 18 18 18 18 18 18 18 18 18 18
20 20 20 20 20 20 20 20 20 19 19 19 19 19 19 19 19 19 19 19 19 19 19 19 19 19 19 19 19 19 19 18 18 18 18 18 18 18 18 18 18 18 18
21 20 20 20 20 20 20 20 19 19 19 19 19 19 19 19 19 19 19 19 19 19 19 19 19 19 19 19 19 19 19 18 18 18 18 18 18 18 18 18 18 18 18
21 20 20 20 20 20 20 20 19 19 19 19 19 19 19 19 19 19 19 19 19 19 19 19 19 19 19 19 19 19 19 19 18 18 18 18 19 18 18 18 18 18 18
21 20 20 20 20 20 20 20 19 19 19 19 19 19 19 19 19 19 19 19 19 19 19 19 19 19 19 19 19 19 19 19 19 19 19 19 19 19 18 18 18 18 18
21 20 20 20 20 20 20 19 19 19 19 19 19 19 19 19 19 19 19 19 19 19 19 19 19 18 18 19 19 19 19 19 19 19 19 19 19 19 18 18 18 18 18
21 21 20 20 20 20 19 19 19 19 19 19 19 19 19 19 19 19 19 19 19 19 19 19 19 18 18 18 19 19 19 19 19 19 19 19 19 19 19 18 18 18 18
21 21 21 20 20 20 19 19 19 19 19 19 19 19 19 19 18 18 19 19 19 19 19 19 18 18 18 18 18 19 19 19 19 19 19 19 19 19 19 18 18 18 18
21 21 21 20 20 20 19 19 19 19 19 19 19 19 19 19 19 18 19 18 18 18 18 18 18 18 18 18 18 18 19 19 19 19 19 19 19 19 19 18 18 18 18
21 21 20 20 20 20 20 19 19 19 19 19 19 19 19 19 19 18 18 18 18 18 18 18 18 18 18 18 18 19 19 19 19 19 19 19 19 19 19 18 18 18 18
21 20 20 20 20 20 19 19 19 19 19 19 19 19 19 19 19 19 18 18 18 18 18 18 18 18 18 18 18 19 19 19 19 19 19 19 19 19 19 19 18 18 18
21 20 20 20 20 19 19 19 19 19 19 19 19 19 19 19 19 19 18 18 18 18 18 18 18 18 18 18 18 18 19 19 19 19 19 19 19 19 19 19 19 18 18
21 20 20 20 20 19 19 19 19 19 19 19 19 19 19 19 19 19 19 19 19 18 18 18 18 18 18 18 18 19 19 19 19 19 19 19 19 19 19 19 19 19 18
21 20 20 20 20 20 19 19 19 19 19 19 19 19 19 19 19 19 19 19 18 18 18 18 18 18 18 18 18 18 19 19 19 19 19 19 19 19 19 19 19 19 18
21 20 20 20 20 19 19 19 19 19 19 19 19 19 19 19 19 19 19 19 18 18 18 18 18 18 18 18 18 19 19 19 19 19 19 19 19 19 19 19 19 19 19
21 20 20 20 20 19 19 19 19 19 19 19 19 19 19 19 19 19 19 19 18 18 18 18 18 18 18 18 18 19 19 19 19 19 19 19 19 19 19 19 19 18 18
21 20 20 20 20 19 19 19 19 19 19 19 19 19 19 19 19 19 18 18 18 18 18 18 18 18 18 18 18 18 19 19 19 19 19 19 19 19 19 18 18 18 18
21 20 20 20 20 19 19 19 19 19 19 19 19 19 19 19 19 19 19 18 18 18 18 18 18 18 18 18 18 18 18 19 19 19 19 19 19 19 19 19 18 18 18
21 21 20 20 20 20 20 19 19 19 19 19 19 19 19 19 19 19 19 19 18 18 18 18 18 18 18 18 18 18 18 18 19 19 19 19 19 19 19 19 18 18 18
21 21 20 20 20 20 20 19 19 19 19 19 19 19 19 19 19 19 19 19 19 18 18 18 18 18 18 18 18 19 19 18 18 18 19 19 19 19 19 19 18 18 18
22 21 20 20 20 20 20 20 19 19 19 19 19 19 19 19 19 19 19 19 19 19 18 18 18 18 18 18 18 18 18 19 19 18 18 19 19 19 19 19 19 18 18
22 21 20 20 20 20 20 20 19 19 19 19 19 19 19 19 19 19 19 19 19 19 19 18 18 18 18 18 18 18 18 18 19 19 19 19 19 19 19 19 19 19 18
Wind_Speed
11 12 13 13 15 15 15 15 16 16 17 17 17 18 18 18 19 19 19 19 19 18 16 15 14 14 14 14 14 13 13 14 14 14 14 14 13 12 11 11 13 14 15
14 14 15 15 16 15 15 15 15 15 16 17 17 17 17 17 17 18 18 18 18 17 16 14 14 13 13 13 13 12 12 12 12 13 13 13 12 11 10 10 12 13 14
15 15 16 16 16 15 15 15 15 15 15 16 16 17 17 17 17 17 17 17 17 16 15 14 13 13 12 12 12 11 10 10 10 11 12 12 11 11 11 13 14 14 13
14 15 15 16 15 15 15 15 15 15 15 16 16 16 16 17 16 16 16 16 15 15 14 13 12 12 11 11 10 9 8 7 8 9 8 11 12 11 11 12 12 12 12
13 14 16 16 16 15 15 15 14 15 15 15 15 15 16 15 16 15 16 15 15 14 13 12 11 11 11 10 9 8 6 5 5 5 5 12 13 12 11 11 11 11 11
13 15 16 17 16 15 15 14 14 14 15 14 14 15 15 14 15 15 15 14 14 13 12 11 10 10 10 9 7 6 5 5 5 5 7 13 13 12 11 10 10 10 10
13 14 16 17 16 15 14 14 14 14 14 14 14 14 15 15 15 15 15 14 13 12 11 10 9 9 8 7 6 4 4 4 6 3 9 13 14 13 12 10 10 9 9
13 14 15 17 17 15 14 14 14 14 14 14 14 14 14 14 15 14 14 13 13 12 11 10 9 8 7 6 4 4 5 6 4 4 10 13 15 14 12 10 9 9 8
13 13 12 14 15 15 14 14 14 13 13 13 13 13 13 14 14 14 14 13 12 12 11 10 8 7 6 5 5 6 6 7 6 3 9 13 15 14 12 11 9 9 8
12 12 12 13 13 13 13 13 14 13 12 12 12 12 12 13 13 14 13 12 12 12 11 10 8 7 7 6 7 7 8 7 7 4 9 14 16 14 12 11 9 9 8
11 10 9 11 11 12 12 13 13 13 12 11 11 12 12 11 12 12 12 12 12 12 11 10 9 8 8 9 10 9 9 7 5 3 10 15 15 13 11 10 9 9 9
9 8 7 9 9 10 10 11 10 10 10 9 8 10 9 8 10 11 12 13 12 12 12 11 10 9 9 8 10 11 7 6 4 5 11 17 15 13 10 9 9 9 9
9 7 8 7 7 7 7 7 6 7 8 8 8 8 6 6 7 9 9 10 11 12 10 10 10 8 7 5 5 6 6 4 2 4 12 16 14 12 10 9 9 9 9
9 8 7 7 6 5 5 5 6 5 5 5 7 7 6 4 4 5 5 7 8 8 7 6 6 5 5 5 5 4 3 2 1 4 11 14 14 12 11 9 9 9 9
9 8 7 7 5 4 3 3 5 5 5 7 7 7 6 4 4 4 4 4 5 5 5 3 3 3 3 2 3 2 2 2 2 4 8 13 13 13 11 10 9 9 9
9 8 7 7 6 4 3 2 2 4 5 6 6 7 6 5 4 3 4 3 3 4 5 4 2 2 2 2 2 2 3 3 3 3 7 10 12 13 12 11 10 10 10
8 7 6 7 6 4 3 3 4 4 5 4 5 8 7 6 5 4 4 4 4 5 4 3 2 1 2 3 3 3 3 3 3 4 5 7 10 12 13 12 11 11 10
9 7 5 5 6 5 3 3 3 3 4 4 6 7 8 7 7 5 4 4 5 5 4 3 3 2 2 2 2 2 2 3 4 5 5 6 8 9 12 13 13 12 11
8 7 5 4 5 4 3 2 3 3 3 4 5 6 7 8 8 6 4 4 5 4 3 4 3 2 2 2 2 2 2 3 3 4 5 6 7 8 10 13 15 14 13
9 7 5 4 4 4 3 2 2 2 3 3 4 4 7 6 7 6 4 5 4 4 3 3 2 2 2 2 3 2 2 3 3 4 5 5 6 8 10 11 12 13 14
9 8 6 4 4 3 2 2 3 3 3 3 3 5 6 5 5 4 3 4 4 4 5 4 4 3 3 2 2 2 2 3 4 4 4 3 4 6 8 9 11 11 11
10 8 7 5 5 4 3 2 2 2 2 3 3 4 6 6 5 5 4 4 4 4 4 4 4 3 3 3 2 1 1 2 3 5 4 5 5 4 5 8 9 10 10
10 9 7 6 5 4 3 3 2 2 2 2 3 4 5 5 5 3 3 3 3 4 5 5 5 5 4 3 3 2 2 2 1 2 3 4 4 4 4 4 7 8 10
10 9 7 6 5 4 4 4 4 3 3 3 3 3 4 5 5 5 4 4 4 4 4 5 5 5 5 4 3 3 3 2 2 2 2 3 4 4 4 5 4 6 8
10 10 8 7 5 4 4 4 3 2 2 2 3 4 4 4 4 5 5 4 4 4 4 5 4 5 4 4 4 3 3 3 4 3 3 3 3 4 4 4 4 4 7
10 10 9 8 6 5 4 3 3 2 2 2 2 2 3 2 3 4 4 4 4 4 4 5 5 6 6 5 4 4 3 3 3 3 4 4 4 4 4 3 4 4 6
Wind_Direction
112 116 117 114 124 120 117 117 116 116 115 114 114 114 113 113 114 114 114 115 116 116 116 114 112 109 107 106 105 107 107 105 104 105 104 103 102 101 103 109 111 105 107
115 119 116 112 118 120 118 118 118 119 119 118 117 117 117 116 116 116 116 118 118 117 116 114 112 110 108 109 111 113 114 115 116 117 116 112 107 103 101 102 101 111 112
114 120 120 117 119 119 119 119 120 120 121 119 119 120 120 120 120 120 120 120 120 119 118 116 114 113 113 114 117 120 123 127 131 137 138 123 114 106 102 102 107 113 114
117 123 121 122 122 121 122 121 121 123 124 123 122 123 124 125 126 126 124 123 122 121 120 118 117 116 117 119 123 128 134 145 157 167 168 136 121 115 113 112 115 117 117
114 118 122 126 125 124 124 125 125 126 126 127 128 128 127 129 129 128 126 124 124 123 123 123 121 121 122 124 129 135 149 171 189 206 144 116 116 127 125 123 124 124 125
117 119 126 129 127 126 126 126 128 128 127 128 130 131 131 132 131 129 128 127 126 126 127 127 126 126 128 133 140 149 171 203 233 219 139 123 126 135 136 135 136 135 134
117 120 128 131 128 129 129 129 131 132 131 132 132 133 135 134 133 133 134 134 132 132 131 132 131 131 134 139 148 168 204 236 245 186 130 124 134 142 144 145 145 142 141
115 118 126 133 131 131 132 132 134 136 137 137 137 137 138 140 141 142 141 141 139 140 141 141 139 140 141 150 167 199 225 254 245 166 136 132 141 146 149 152 156 155 155
116 121 128 135 137 137 136 137 137 138 141 143 144 145 145 146 149 150 148 148 148 150 154 152 151 154 158 169 197 221 236 256 273 196 143 135 144 149 153 158 164 165 165
114 123 132 137 141 142 141 144 142 143 144 148 150 153 155 155 157 158 155 156 159 162 164 165 168 173 177 193 214 231 242 259 254 207 134 138 147 151 157 165 171 173 172
111 117 128 135 139 143 143 146 149 149 151 154 159 165 168 168 165 166 159 163 168 172 173 175 180 187 193 206 217 229 245 249 238 159 129 144 151 155 163 170 176 179 180
107 111 114 125 133 137 138 140 154 156 156 164 164 171 182 176 165 159 163 172 177 178 179 185 193 200 205 205 212 221 236 248 236 148 141 151 155 159 167 176 182 185 187
115 113 111 114 115 123 129 140 148 148 156 166 170 176 170 161 158 158 166 176 185 185 189 189 199 205 201 203 206 209 228 241 229 134 146 158 160 165 172 181 187 190 192
113 110 108 106 104 109 128 140 143 148 153 154 165 174 167 164 156 156 160 173 187 188 186 191 202 192 193 209 207 209 217 199 201 131 155 165 166 171 176 183 192 197 198
113 114 115 115 110 109 117 146 147 147 150 154 165 177 169 155 155 149 153 170 187 179 173 197 193 172 173 207 222 194 204 210 206 155 162 169 173 176 178 184 195 203 206
120 121 121 125 117 120 135 148 136 146 151 152 161 161 164 162 150 148 156 161 188 191 185 194 194 175 175 196 206 199 200 202 199 185 165 170 176 181 183 187 195 203 207
123 126 130 136 129 131 148 166 158 159 150 156 156 158 162 167 158 157 164 167 188 198 189 186 201 184 200 210 208 205 190 190 191 198 176 172 178 188 192 193 197 203 209
128 131 137 135 135 146 160 174 164 165 161 162 158 163 172 173 171 174 180 179 189 192 182 177 193 200 216 224 219 229 202 183 195 193 192 189 184 184 194 201 203 206 213
132 133 133 127 134 147 167 174 171 161 165 161 167 174 174 177 178 188 185 179 191 184 183 196 172 192 220 239 238 218 217 212 206 209 199 201 194 186 186 198 205 208 212
138 137 138 139 133 152 163 174 168 162 171 176 177 175 165 177 184 192 190 181 193 186 187 194 186 206 216 232 253 236 229 220 214 215 216 203 199 200 195 190 195 209 215
144 145 147 153 151 164 176 186 181 178 183 178 178 168 164 183 187 191 195 173 189 193 194 192 189 211 221 221 253 270 251 237 218 212 207 209 210 204 194 189 194 199 202
154 154 157 161 170 191 183 198 193 190 192 179 172 161 175 187 191 196 184 195 189 189 187 195 199 214 232 218 212 251 262 276 256 221 205 210 213 206 196 202 205 201 204
157 162 165 166 176 192 185 198 193 172 198 178 171 169 180 189 186 198 187 201 202 206 194 197 207 216 222 234 218 214 218 238 278 258 233 221 213 215 217 203 209 203 210
163 161 154 159 171 177 180 201 194 184 183 180 173 171 180 189 188 196 198 204 207 212 207 211 205 216 216 227 235 230 227 211 221 255 259 236 228 221 225 230 219 201 210
166 162 158 153 158 162 176 185 194 191 185 184 172 171 186 191 191 202 203 200 202 215 220 222 217 220 225 230 234 232 236 229 227 222 248 245 246 232 224 224 220 205 208
164 161 161 156 158 157 160 169 183 192 196 206 201 187 195 196 199 199 203 196 204 217 223 226 223 225 227 236 243 245 237 234 237 230 239 239 238 241 231 229 231 213 206
Height
1493 1493 1492 1488 1490 1497 1500 1502 1504 1506 1508 1510 1512 1514 1516 1519 1521 1524 1526 1528 1531 1533 1535 1537 1539 1541 1543 1544 1546 1547 1549 1550 1551 1552 1554 1555 1555 1556 1557 1558 1559 1560 1561
1494 1494 1494 1493 1495 1499 1502 1504 1506 1508 1510 1512 1514 1517 1519 1521 1524 1526 1528 1531 1533 1535 1537 1539 1541 1543 1545 1546 1547 1549 1550 1551 1552 1554 1555 1556 1557 1558 1559 1560 1561 1561 1562
1495 1496 1498 1499 1500 1502 1504 1506 1509 1511 1513 1515 1517 1519 1521 1523 1526 1528 1531 1533 1535 1537 1539 1541 1543 1544 1546 1547 1549 1550 1552 1553 1554 1555 1557 1558 1559 1560 1560 1561 1562 1563 1564
1498 1498 1500 1502 1503 1505 1507 1509 1511 1513 1515 1517 1519 1521 1523 1526 1528 1530 1532 1535 1537 1539 1541 1542 1544 1546 1547 1549 1550 1552 1553 1555 1556 1557 1558 1560 1560 1561 1562 1563 1564 1564 1565
1500 1501 1502 1504 1505 1507 1509 1511 1513 1515 1517 1519 1521 1523 1525 1527 1530 1532 1534 1536 1538 1540 1542 1544 1545 1547 1549 1550 1552 1553 1555 1556 1557 1558 1560 1561 1562 1562 1563 1564 1565 1565 1566
1501 1502 1504 1506 1507 1509 1511 1513 1515 1517 1519 1521 1523 1525 1527 1529 1531 1533 1536 1537 1540 1542 1544 1545 1547 1548 1550 1551 1553 1555 1556 1557 1558 1560 1561 1562 1562 1563 1564 1565 1566 1566 1567
1503 1504 1505 1507 1509 1511 1513 1514 1517 1519 1521 1522 1524 1527 1529 1530 1532 1535 1537 1539 1541 1543 1545 1546 1548 1550 1551 1553 1554 1556 1557 1558 1559 1561 1562 1562 1563 1564 1565 1565 1566 1567 1568
1504 1505 1506 1509 1511 1512 1514 1516 1518 1520 1522 1524 1526 1528 1530 1532 1534 1536 1538 1540 1542 1544 1545 1547 1549 1551 1552 1554 1555 1557 1558 1559 1560 1562 1562 1563 1564 1565 1565 1566 1567 1567 1568
1504 1505 1508 1510 1512 1514 1516 1517 1519 1522 1523 1526 1528 1530 1532 1533 1535 1538 1539 1541 1543 1544 1546 1548 1549 1551 1553 1554 1555 1557 1559 1560 1561 1562 1563 1563 1564 1565 1566 1566 1567 1568 1568
1505 1507 1509 1511 1513 1515 1517 1519 1521 1523 1525 1527 1529 1531 1533 1535 1536 1538 1540 1542 1543 1545 1546 1548 1549 1551 1553 1554 1556 1557 1559 1560 1561 1563 1563 1564 1564 1565 1566 1566 1567 1567 1568
1508 1510 1512 1514 1515 1517 1519 1521 1523 1524 1526 1528 1530 1532 1534 1536 1538 1539 1541 1542 1544 1545 1546 1548 1550 1551 1552 1554 1556 1557 1559 1560 1561 1562 1563 1564 1564 1565 1565 1566 1566 1567 1568
1510 1512 1514 1515 1517 1519 1521 1522 1524 1526 1527 1529 1531 1533 1535 1537 1539 1540 1541 1543 1544 1545 1546 1548 1550 1551 1552 1554 1555 1557 1558 1559 1561 1562 1562 1563 1564 1564 1565 1565 1566 1566 1567
1511 1513 1515 1517 1518 1520 1521 1523 1525 1527 1528 1530 1531 1533 1535 1537 1539 1540 1541 1543 1544 1545 1547 1548 1549 1550 1551 1553 1554 1556 1558 1559 1560 1561 1562 1563 1563 1564 1564 1565 1565 1566 1566
1513 1515 1516 1517 1519 1520 1522 1524 1525 1527 1528 1530 1531 1533 1535 1537 1538 1540 1541 1542 1544 1545 1547 1548 1549 1550 1551 1552 1554 1555 1557 1559 1560 1561 1561 1562 1563 1563 1563 1564 1564 1565 1566
1514 1516 1517 1518 1519 1520 1522 1524 1526 1527 1529 1530 1532 1533 1535 1537 1538 1540 1541 1542 1544 1545 1547 1548 1549 1550 1551 1552 1554 1555 1556 1558 1559 1560 1561 1561 1562 1562 1563 1563 1563 1564 1564
1515 1516 1518 1518 1519 1521 1522 1524 1526 1528 1529 1531 1532 1533 1535 1536 1538 1539 1541 1542 1544 1546 1547 1548 1549 1550 1551 1552 1553 1554 1556 1557 1558 1559 1560 1560 1561 1561 1562 1562 1563 1563 1563
1515 1517 1518 1519 1520 1521 1522 1524 1526 1528 1529 1531 1532 1533 1535 1536 1538 1539 1540 1542 1544 1545 1547 1548 1549 1550 1551 1551 1552 1553 1555 1556 1557 1558 1559 1559 1559 1560 1560 1561 1562 1562 1562
1515 1517 1518 1520 1520 1521 1522 1524 1526 1528 1529 1530 1532 1533 1534 1536 1537 1539 1540 1541 1543 1545 1546 1547 1548 1549 1550 1551 1552 1553 1554 1555 1555 1556 1557 1558 1558 1559 1559 1560 1560 1561 1561
1515 1517 1518 1519 1520 1521 1523 1524 1526 1527 1528 1530 1531 1532 1533 1535 1536 1538 1539 1540 1542 1544 1545 1547 1548 1549 1549 1550 1551 1552 1552 1553 1554 1555 1556 1556 1557 1557 1558 1558 1559 1559 1559
1515 1516 1518 1519 1520 1521 1522 1524 1525 1527 1528 1529 1530 1532 1533 1534 1535 1537 1538 1539 1541 1543 1544 1545 1547 1548 1548 1549 1550 1551 1551 1552 1552 1553 1554 1555 1556 1556 1556 1557 1557 1557 1557
1514 1515 1517 1518 1519 1520 1522 1523 1525 1526 1527 1528 1530 1531 1532 1533 1534 1535 1537 1538 1540 1541 1542 1544 1545 1546 1547 1548 1549 1549 1549 1550 1551 1551 1552 1553 1554 1554 1555 1555 1555 1555 1555
1513 1514 1515 1517 1518 1519 1521 1522 1524 1525 1526 1527 1528 1529 1530 1531 1533 1534 1535 1537 1538 1540 1541 1542 1543 1544 1546 1547 1548 1548 1548 1549 1549 1549 1550 1551 1551 1552 1552 1553 1553 1552 1552
1511 1513 1514 1515 1517 1518 1519 1520 1522 1524 1525 1526 1527 1528 1529 1531 1532 1533 1534 1536 1537 1538 1539 1541 1542 1542 1543 1545 1546 1547 1547 1547 1547 1547 1548 1548 1549 1550 1550 1550 1550 1550 1550
1510 1512 1513 1514 1515 1516 1516 1518 1520 1522 1523 1525 1526 1527 1528 1529 1530 1532 1533 1534 1535 1536 1538 1539 1540 1541 1541 1542 1544 1545 1545 1545 1545 1545 1546 1546 1547 1547 1547 1547 1547 1547 1547
1508 1510 1511 1513 1514 1514 1515 1516 1519 1521 1522 1524 1525 1527 1527 1528 1529 1530 1531 1532 1533 1534 1535 1536 1537 1538 1539 1540 1541 1541 1542 1542 1543 1543 1543 1543 1544 1544 1544 1544 1545 1544 1544
1506 1508 1510 1511 1512 1514 1515 1516 1518 1519 1521 1523 1524 1525 1526 1527 1527 1528 1529 1530 1531 1532 1533 1533 1534 1535 1536 1537 1538 1538 1539 1540 1540 1540 1540 1540 1540 1541 1541 1541 1541 1541 1541